Weather History for Fort Lewis, WA

Change the Weather History Date:

Monday, July 30, 2012

  Actual Average Record
Temperature  
Mean Temperature 14 °C -  
Max Temperature 19 °C 24 °C 35 °C (2003)
Min Temperature 11 °C 11 °C 10 °C (2001)
Degree Days  
Heating Degree Days 6    
Growing Degree Days 8 (Base 50)    
Moisture  
Dew Point 11 °C    
Average Humidity 72    
Maximum Humidity 94    
Minimum Humidity 63    
Precipitation  
Precipitation 0.00 mm - - ()
Sea Level Pressure  
Sea Level Pressure 1021 hPa    
Wind  
Wind Speed 8 km/h (SW)    
Max Wind Speed 14 km/h    
Max Gust Speed -    
Visibility 16 kilometers    
Events Rain    
Averages and records for this station are not official NWS values.
T = Trace of Precipitation, MM = Missing Value Source: NWS Daily Summary

Daily Weather History Graph

Daily Weather History Graph

Search for Another Location

Airport:

Trip Planner

Search our weather history database for the weather conditions in past years. The results will help you decide how hot, cold, wet, or windy it might be!

Date:

Astronomy

Jul. 30, 2012 Rise Set
Actual Time 5:47 AM PDT 8:44 PM PDT
Civil Twilight 5:11 AM PDT 9:20 PM PDT
Nautical Twilight 4:25 AM PDT 10:06 PM PDT
Astronomical Twilight 3:30 AM PDT 11:01 PM PDT
Moon 6:53 PM PDT (7/30) 3:04 AM PDT (7/30)
Length of Visible Light 16h 08m
Length of Day
14h 57m
Waxing Gibbous, 93% of the Moon is Illuminated
Jul 30
Waxing Gibbous
Aug 1
Full
Aug 9
Last Quarter
Aug 17
New
Aug 24
First Quarter

Hourly Weather History & Observations

Time (PDT) Temp. Dew Point Humidity Pressure Visibility Wind Dir Wind Speed Gust Speed Precip Events Conditions
12:58 AM 12.8 °C 10.9 °C 88% 1021.0 hPa 16.1 km South 7.4 km/h / 2.1 m/s - N/A   Partly Cloudy
1:58 AM 11.9 °C 10.6 °C 92% 1021.0 hPa 16.1 km SE 5.6 km/h / 1.5 m/s - N/A   Clear
2:58 AM 11.0 °C 9.5 °C 90% 1021.3 hPa 16.1 km SE 5.6 km/h / 1.5 m/s - N/A   Clear
3:18 AM 11.0 °C 10.0 °C 94% 1020.9 hPa 16.1 km South 5.6 km/h / 1.5 m/s - N/A   Mostly Cloudy
3:58 AM 12.5 °C 10.9 °C 90% 1021.3 hPa 16.1 km SSE 3.7 km/h / 1.0 m/s - N/A   Overcast
4:23 AM 13.0 °C 11.0 °C 88% 1020.9 hPa 16.1 km SSW 5.6 km/h / 1.5 m/s - N/A   Overcast
4:58 AM 13.1 °C 11.0 °C 87% 1021.3 hPa 16.1 km South 3.7 km/h / 1.0 m/s - N/A   Overcast
5:38 AM 13.0 °C 11.0 °C 88% 1020.9 hPa 16.1 km SSW 5.6 km/h / 1.5 m/s - N/A   Overcast
5:58 AM 13.3 °C 11.0 °C 86% 1021.3 hPa 16.1 km SSW 5.6 km/h / 1.5 m/s - N/A   Overcast
6:53 AM 13.0 °C 11.0 °C 88% 1020.9 hPa 16.1 km South 7.4 km/h / 2.1 m/s - N/A   Overcast
6:58 AM 13.4 °C 10.9 °C 85% 1021.6 hPa 16.1 km South 9.3 km/h / 2.6 m/s - N/A   Overcast
7:58 AM 13.9 °C 10.3 °C 79% 1021.6 hPa 16.1 km South 11.1 km/h / 3.1 m/s - N/A   Overcast
8:58 AM 14.7 °C 10.2 °C 74% 1022.0 hPa 16.1 km South 13.0 km/h / 3.6 m/s - N/A   Overcast
9:58 AM 15.4 °C 10.4 °C 72% 1022.0 hPa 16.1 km South 9.3 km/h / 2.6 m/s - N/A   Overcast
10:58 AM 16.0 °C 10.9 °C 72% 1022.0 hPa 16.1 km SW 11.1 km/h / 3.1 m/s - N/A   Overcast
11:58 AM 16.4 °C 11.3 °C 72% 1022.4 hPa 16.1 km South 9.3 km/h / 2.6 m/s - N/A   Overcast
12:58 PM 17.0 °C 11.7 °C 71% 1022.4 hPa 16.1 km South 13.0 km/h / 3.6 m/s - N/A   Overcast
1:58 PM 17.9 °C 12.0 °C 68% 1022.4 hPa 16.1 km South 11.1 km/h / 3.1 m/s - N/A   Overcast
2:02 PM 18.0 °C 12.0 °C 68% 1021.6 hPa 16.1 km South 7.4 km/h / 2.1 m/s - N/A   Light Drizzle
2:22 PM 18.0 °C 12.0 °C 68% 1021.6 hPa 16.1 km SSW 9.3 km/h / 2.6 m/s - N/A   Overcast
2:58 PM 18.0 °C 12.2 °C 69% 1022.0 hPa 16.1 km Variable 5.6 km/h / 1.5 m/s - 0.0 mm   Overcast
3:58 PM 18.8 °C 12.2 °C 65% 1021.7 hPa 16.1 km Variable 5.6 km/h / 1.5 m/s - N/A   Overcast
4:58 PM 18.8 °C 12.2 °C 65% 1021.3 hPa 16.1 km SW 13.0 km/h / 3.6 m/s - N/A   Overcast
5:28 PM 19.0 °C 12.0 °C 64% 1020.9 hPa 16.1 km SSW 7.4 km/h / 2.1 m/s - N/A   Overcast
5:38 PM 19.0 °C 12.0 °C 64% 1020.9 hPa 16.1 km South 9.3 km/h / 2.6 m/s - N/A   Overcast
5:57 PM 19.0 °C 12.0 °C 64% 1020.9 hPa 16.1 km SSW 11.1 km/h / 3.1 m/s - N/A Rain Light Rain
5:58 PM 18.9 °C 11.6 °C 63% 1021.3 hPa 16.1 km SSW 11.1 km/h / 3.1 m/s - N/A Rain Light Rain
6:22 PM 19.0 °C 12.0 °C 64% 1020.5 hPa 16.1 km SSE 11.1 km/h / 3.1 m/s - N/A   Overcast
6:52 PM 18.0 °C 11.0 °C 64% 1020.9 hPa 16.1 km West 14.8 km/h / 4.1 m/s - N/A   Overcast
6:58 PM 18.4 °C 11.3 °C 63% 1021.3 hPa 16.1 km West 11.1 km/h / 3.1 m/s - 0.0 mm   Overcast
7:13 PM 18.0 °C 11.0 °C 64% 1020.9 hPa 16.1 km West 13.0 km/h / 3.6 m/s - N/A   Overcast
7:50 PM 18.0 °C 11.0 °C 64% 1020.9 hPa 16.1 km West 11.1 km/h / 3.1 m/s - N/A Rain Light Rain
7:58 PM 17.9 °C 11.0 °C 64% 1021.3 hPa 16.1 km West 9.3 km/h / 2.6 m/s - 0.0 mm Rain Light Rain
8:48 PM 17.0 °C 11.0 °C 68% 1020.9 hPa 16.1 km West 9.3 km/h / 2.6 m/s - N/A Rain Light Rain
9:00 PM 17.0 °C 10.0 °C 63% 1021.2 hPa 16.1 km WNW 9.3 km/h / 2.6 m/s - N/A   Overcast
9:58 PM 16.7 °C 10.1 °C 65% 1021.6 hPa 16.1 km WNW 7.4 km/h / 2.1 m/s - 0.0 mm   Overcast
9:59 PM 17.0 °C 10.0 °C 63% 1021.2 hPa 16.1 km WNW 5.6 km/h / 1.5 m/s - N/A   Light Drizzle
10:10 PM 17.0 °C 10.0 °C 63% 1021.2 hPa 16.1 km West 11.1 km/h / 3.1 m/s - N/A Rain Light Rain
10:19 PM 17.0 °C 10.0 °C 63% 1021.2 hPa 16.1 km SW 9.3 km/h / 2.6 m/s - N/A   Overcast
10:20 PM 17.0 °C 10.0 °C 63% 1020.9 hPa 16.1 km SW 9.3 km/h / 2.6 m/s - N/A   Overcast
10:25 PM 17.0 °C 10.0 °C 63% 1021.2 hPa 16.1 km SW 13.0 km/h / 3.6 m/s - N/A   Light Drizzle
10:34 PM 16.0 °C 10.0 °C 68% 1021.2 hPa 16.1 km SW 11.1 km/h / 3.1 m/s - N/A   Overcast
10:41 PM 16.0 °C 10.0 °C 68% 1021.2 hPa 16.1 km WSW 9.3 km/h / 2.6 m/s - N/A Rain Light Rain
10:42 PM 16.0 °C 10.0 °C 68% 1021.2 hPa 16.1 km WSW 9.3 km/h / 2.6 m/s - N/A   Overcast
10:45 PM 16.0 °C 10.0 °C 68% 1021.2 hPa 16.1 km WSW 7.4 km/h / 2.1 m/s - N/A   Overcast
11:58 PM 15.0 °C 10.0 °C 72% 1021.2 hPa 16.1 km West 9.3 km/h / 2.6 m/s - N/A   Overcast